Arctic Village, AK

3:36 AM AKDT on July 26, 2017 (GMT -0800)
Arctic Village

Weather History for PARC - December, 2012

Change the Weather History Date:

Wednesday, December 19, 2012

  Actual Average Record
Temperature  
Mean Temperature -20 °F -  
Max Temperature -9 °F -4 °F 20 °F (1962)
Min Temperature -32 °F -25 °F -49 °F (2001)
Degree Days  
Heating Degree Days 85    
Moisture  
Dew Point -25 °F    
Average Humidity 66    
Maximum Humidity 100    
Minimum Humidity 37    
Precipitation  
Precipitation 0.00 in - - ()
Sea Level Pressure  
Sea Level Pressure 29.91 in    
Wind  
Wind Speed 0 mph (North)    
Max Wind Speed 0 mph    
Max Gust Speed -    
Visibility 9 miles    
Events      
Averages and records for this station are not official NWS values.
T = Trace of Precipitation, MM = Missing Value Source: NWS Daily Summary

Daily Weather History Graph

Daily Weather History Graph

Search for Another Location

Airport or City:

Trip Planner

Search our weather history database for the weather conditions in past years. The results will help you decide how hot, cold, wet, or windy it might be!

Date:

Astronomy

Dec. 19, 2012 Rise Set
Actual Time 12:07 PM AKST 1:12 PM AKST
Civil Twilight 10:02 AM AKST 3:17 PM AKST
Nautical Twilight 8:32 AM AKST 4:47 PM AKST
Astronomical Twilight 7:20 AM AKST 5:59 PM AKST
Moon 12:01 PM AKST (12/19) No Moon Set
Length of Visible Light 5h 14m
Length of Day
1h 04m
Waxing Crescent, 46% of the Moon is Illuminated
Dec 19
Waxing Crescent
Dec 19
First Quarter
Dec 28
Full
Jan 4
Last Quarter
Jan 11
New

Hourly Weather History & Observations

Time (AKST) Temp. Dew Point Humidity Pressure Visibility Wind Dir Wind Speed Gust Speed Precip Events Conditions
12:16 AM -25.6 °F - N/A% 29.58 in 10.0 mi Calm Calm - N/A   Overcast
12:36 AM -25.6 °F - N/A% 29.59 in 10.0 mi Calm Calm - N/A   Overcast
12:56 AM -23.8 °F - N/A% 29.60 in 10.0 mi Calm Calm - N/A   Overcast
1:16 AM -23.8 °F - N/A% 29.61 in 10.0 mi Calm Calm - N/A   Overcast
1:36 AM -22.0 °F - N/A% 29.62 in 10.0 mi Calm Calm - N/A   Overcast
1:56 AM -22.0 °F - N/A% 29.63 in 10.0 mi Calm Calm - N/A   Overcast
2:16 AM -20.2 °F - N/A% 29.64 in 10.0 mi Calm Calm - N/A   Overcast
2:36 AM -20.2 °F - N/A% 29.65 in 10.0 mi Calm Calm - N/A   Overcast
3:16 AM -20.2 °F - N/A% 29.66 in 10.0 mi Calm Calm - N/A   Overcast
3:36 AM -20.2 °F - N/A% 29.67 in 10.0 mi Calm Calm - N/A   Overcast
3:56 AM -20.2 °F - N/A% 29.68 in 10.0 mi Calm Calm - N/A   Overcast
4:16 AM -20.2 °F - N/A% 29.69 in 10.0 mi Calm Calm - N/A   Overcast
4:36 AM -20.2 °F - N/A% 29.70 in 10.0 mi Calm Calm - N/A   Scattered Clouds
4:56 AM -20.2 °F - N/A% 29.71 in 10.0 mi Calm Calm - N/A   Mostly Cloudy
5:16 AM -18.4 °F -25.6 °F 70% 29.72 in 10.0 mi Calm Calm - N/A   Overcast
5:36 AM -20.2 °F - N/A% 29.73 in 10.0 mi Calm Calm - N/A   Overcast
5:56 AM -18.4 °F -23.8 °F 76% 29.74 in 10.0 mi Calm Calm - N/A   Overcast
6:16 AM -20.2 °F - N/A% 29.75 in 10.0 mi Calm Calm - N/A   Overcast
6:36 AM -18.4 °F -18.4 °F 100% 29.76 in 10.0 mi Calm Calm - N/A   Overcast
6:56 AM -18.4 °F - N/A% 29.76 in 10.0 mi Calm Calm - N/A   Mostly Cloudy
7:16 AM -18.4 °F - N/A% 29.78 in 10.0 mi Calm Calm - N/A   Overcast
7:36 AM -18.4 °F - N/A% 29.79 in 10.0 mi Calm Calm - N/A   Mostly Cloudy
7:56 AM -18.4 °F - N/A% 29.80 in 10.0 mi Calm Calm - N/A   Mostly Cloudy
8:16 AM -18.4 °F - N/A% 29.82 in 10.0 mi Calm Calm - N/A   Overcast
8:36 AM -18.4 °F - N/A% 29.82 in 8.0 mi Calm Calm - N/A   Mostly Cloudy
8:56 AM -18.4 °F - N/A% 29.84 in 10.0 mi Calm Calm - N/A   Overcast
9:16 AM -18.4 °F - N/A% 29.84 in 10.0 mi Calm Calm - N/A   Overcast
9:36 AM -18.4 °F - N/A% 29.85 in 10.0 mi Calm Calm - N/A   Overcast
9:56 AM -18.4 °F - N/A% 29.86 in 5.0 mi Calm Calm - N/A   Overcast
10:16 AM -18.4 °F - N/A% 29.87 in 6.0 mi Calm Calm - N/A   Overcast
10:36 AM -18.4 °F - N/A% 29.88 in 10.0 mi Calm Calm - N/A   Overcast
10:56 AM -18.4 °F -29.2 °F 58% 29.88 in 8.0 mi Calm Calm - N/A   Overcast
11:16 AM -18.4 °F -27.4 °F 63% 29.89 in 7.0 mi Calm Calm - N/A   Overcast
11:36 AM -16.6 °F -25.6 °F 64% 29.90 in 5.0 mi Calm Calm - N/A   Overcast
11:56 AM -16.6 °F -27.4 °F 58% 29.91 in 5.0 mi Calm Calm - N/A   Overcast
12:16 PM -16.6 °F -22.0 °F 76% 29.92 in 5.0 mi Calm Calm - N/A   Mostly Cloudy
12:36 PM -16.6 °F -29.2 °F 53% 29.93 in 9.0 mi Calm Calm - N/A   Overcast
12:56 PM -16.6 °F -16.6 °F 100% 29.94 in 4.0 mi Calm Calm - N/A   Overcast
1:16 PM -14.8 °F - N/A% 29.95 in 5.0 mi Calm Calm - N/A   Overcast
1:36 PM -14.8 °F - N/A% 29.96 in 8.0 mi Calm Calm - N/A   Overcast
1:56 PM -14.8 °F - N/A% 29.97 in 9.0 mi Calm Calm - N/A   Overcast
2:16 PM -11.2 °F - N/A% 29.98 in 7.0 mi Calm Calm - N/A   Overcast
2:36 PM -9.4 °F -29.2 °F 37% 29.99 in 3.0 mi Calm Calm - N/A   Overcast
2:56 PM -9.4 °F -27.4 °F 41% 30.00 in 4.0 mi Calm Calm - N/A   Overcast
3:16 PM -9.4 °F -23.8 °F 49% 30.01 in 4.0 mi Calm Calm - N/A   Overcast
3:36 PM -11.2 °F -25.6 °F 49% 30.02 in 5.0 mi Calm Calm - N/A   Overcast
3:56 PM -14.8 °F -27.4 °F 53% 30.02 in 4.0 mi Calm Calm - N/A   Overcast
4:16 PM -14.8 °F -23.8 °F 64% 30.03 in 10.0 mi Calm Calm - N/A   Overcast
4:36 PM -13.0 °F -20.2 °F 70% 30.04 in 5.0 mi Calm Calm - N/A   Overcast
4:56 PM -16.6 °F - N/A% 30.04 in 3.0 mi Calm Calm - N/A   Mostly Cloudy
5:16 PM -16.6 °F -25.6 °F 64% 30.05 in 10.0 mi Calm Calm - N/A   Partly Cloudy
5:36 PM -20.2 °F - N/A% 30.07 in 10.0 mi Calm Calm - N/A   Clear
5:56 PM -18.4 °F -20.2 °F 91% 30.08 in 10.0 mi Calm Calm - N/A   Clear
6:16 PM -20.2 °F - N/A% 30.09 in 10.0 mi Calm Calm - N/A   Clear
6:36 PM -18.4 °F -20.2 °F 91% 30.10 in 10.0 mi Calm Calm - N/A   Clear
6:56 PM -18.4 °F - N/A% 30.10 in 10.0 mi Calm Calm - N/A   Clear
7:16 PM -20.2 °F - N/A% 30.11 in 10.0 mi Calm Calm - N/A   Clear
7:36 PM -20.2 °F -27.4 °F 69% 30.12 in 10.0 mi Calm Calm - N/A   Clear
7:56 PM -23.8 °F - N/A% 30.12 in 10.0 mi Calm Calm - N/A   Clear
8:16 PM -23.8 °F -38.2 °F 47% 30.12 in 10.0 mi Calm Calm - N/A   Clear
8:36 PM -20.2 °F - N/A% 30.14 in 10.0 mi Calm Calm - N/A   Clear
8:56 PM -23.8 °F - N/A% 30.15 in 9.0 mi Calm Calm - N/A   Clear
9:16 PM -27.4 °F - N/A% 30.16 in 10.0 mi Calm Calm - N/A   Clear
9:36 PM -25.6 °F - N/A% 30.16 in 10.0 mi Calm Calm - N/A   Clear
9:56 PM -23.8 °F - N/A% 30.17 in 10.0 mi Calm Calm - N/A   Clear
10:16 PM -25.6 °F - N/A% 30.18 in 10.0 mi Calm Calm - N/A   Clear
10:36 PM -27.4 °F - N/A% 30.19 in 10.0 mi Calm Calm - N/A   Clear
10:56 PM -25.6 °F - N/A% 30.20 in 10.0 mi Calm Calm - N/A   Clear
11:16 PM -31.0 °F - N/A% 30.20 in 10.0 mi Calm Calm - N/A   Clear
11:36 PM -31.0 °F - N/A% 30.21 in 10.0 mi Calm Calm - N/A   Clear
11:56 PM -32.8 °F - N/A% 30.22 in 10.0 mi Calm Calm - N/A   Clear